Showing default

REFLECTOR, 27005

Orbit data source: Space-Track

REFLECTOR, 27005 is a Commonwealth of Independent States-origin payload satellite in SSO that was launched on Mon, 10 Dec 2001 UTC via a ZENIT-2 launch vehicle from the Tyuratam Missile And Space Complex (TTMTR). Payload-class satellites include a variety of spacecraft equipped with specific instruments for various scientific and technological missions. These include communications satellites like Starlink; space stations such as the ISS; scientific satellites like the Hubble; Earth observation satellites from companies like Planet Labs, Umbra, and HawkEye 360; GPS; miniature CubeSats for education and research; and military/defense satellites.

Loading next visibility...
Identifier
27005, 2001-056E
Orbit
SSO
Country
Flag of CISCIS
Related business
Manufacturer
NIIPP
Mission
Defense Calibration
Bus & Motor
REFLEKTOR, Unknown motor
Mass
8 kg wet, 8 kg dry
Launch date (UTC)
2001-12-10 (24 years ago)
Launch vehicle
ZENIT-2
Launch site
Tyuratam Missile And Space Complex (TTMTR)
Object type
Payload
Rocket body
Debris
Shape & HBR
Box + 4 Fin, 0.7 m
Radar Cross Section
1.680 m², Medium (>0.1 m² and < 1m²)

Expand to show TLE details & history
Last TLE update: 18 hours ago

TLE from 18 hours ago
0 REFLECTOR
1 27005U 01056E   25260.31922406  .00000076  00000-0  13590-3 0  9992
2 27005  99.7401  61.5135 0019104  95.9273 264.4051 13.71364296189133
Epoch: 2025-09-17T07:39Z
TLE epoch observation values (Epoch: 2025-09-17T07:39:40.958Z)
Latitude
-0.00006°
Longitude
-49.90403°
Altitude
998.891 km
Speed
7.352 km/s
True Right ascension
04h 06m 03s
True Declination
0° 00' 00"
Sunlit
Object was in daylight at epoch
Visualization orbit readout
Latitude
Unknown
Longitude
Unknown
Altitude
Unknown
Speed
Unknown
Apparent Right ascension
Unknown
Apparent Declination
Unknown
Sunlit
N/A
Visualization observer readout
Local Sidereal Time
18:31:54
Azimuth
Unknown
Elevation
Unknown
Doppler factor
Unknown
Orbital elements
Apogee altitude
1,006.032 km
Perigee altitude
977.872 km
Semi-major axis
7,370.089 km
Eccentricity
0.00191
Inclination
99.7401°
RAAN
61.5135°
Arg. of periapsis
95.9273°
True anomaly
264.18728°
Mean anomaly
264.4051°
Eccentric anomaly
264.29618°
Mean motion
3.43032 °/min
Orbital period
104.95 mins
BSTAR
0.0001359
Loading maneuver chart data...
Computing Atmospheric mass density...
Loading historical data...
Loading historical data...
Loading historical data...
Loading historical data...
Loading historical data...
Loading historical data...
Loading historical data...

Documentation

Showing up to 5 results
|